Bloomington, IN

8:59 AM EST on December 15, 2019 (GMT -0500)
Monroe County

Weather History for KBMG - November, 2019

Change the Weather History Date:

Saturday, November 16, 2019

  Actual Average Record
Temperature  
Mean Temperature 38 °F 44 °F  
Max Temperature 48 °F 54 °F 73 °F (2001)
Min Temperature 29 °F 34 °F 22 °F (2012)
Degree Days  
Heating Degree Days 26 21  
Month to date heating degree days 463 289  
Since 1 July heating degree days 762 708  
Cooling Degree Days 0 0  
Month to date cooling degree days 0 0  
Year to date cooling degree days 1239 926  
Moisture  
Dew Point 26 °F    
Average Humidity 69    
Maximum Humidity 85    
Minimum Humidity 45    
Precipitation  
Precipitation 0.00 in 0.14 in 0.93 in (2006)
Month to date precipitation 0.60 2.16  
Year to date precipitation 42.79 42.23  
Sea Level Pressure  
Sea Level Pressure 30.31 in    
Wind  
Wind Speed 6 mph ()    
Max Wind Speed 14 mph    
Max Gust Speed 21 mph    
Visibility 8.6 miles    
Events      
T = Trace of Precipitation, MM = Missing Value Source: Averaged Metar Reports

Daily Weather History Graph

Daily Weather History Graph

Search for Another Location

Airport or City:

Astronomy

Nov. 16, 2019 Rise Set
Actual Time 7:30 AM EST 5:31 PM EST
Civil Twilight 7:01 AM EST 6:00 PM EST
Nautical Twilight 6:29 AM EST 6:32 PM EST
Astronomical Twilight 5:57 AM EST 7:04 PM EST
Moon 9:04 PM EST (11/16) 11:23 AM EST (11/16)
Length of Visible Light 10h 58m
Length of Day
10h 00m
Waning Gibbous, 82% of the Moon is Illuminated
Nov 16
Waning Gibbous
Nov 19
Last Quarter
Nov 26
New
Dec 4
First Quarter
Dec 12
Full

Hourly Weather History & Observations

Time (EST) Temp. Windchill Dew Point Humidity Pressure Visibility Wind Dir Wind Speed Gust Speed Precip Events Conditions
12:53 AM 34.0 °F 28.8 °F 28.0 °F 79% 30.37 in 10.0 mi ENE 5.8 mph - N/A   Mostly Cloudy
1:53 AM 34.0 °F 27.2 °F 27.0 °F 75% 30.36 in 9.0 mi ENE 8.1 mph - N/A   Mostly Cloudy
2:53 AM 34.0 °F 28.8 °F 27.0 °F 75% 30.35 in 8.0 mi ENE 5.8 mph - N/A   Overcast
3:53 AM 32.0 °F 26.4 °F 26.1 °F 79% 30.34 in 8.0 mi ENE 5.8 mph - N/A   Scattered Clouds
4:53 AM 30.9 °F - 25.0 °F 79% 30.34 in 7.0 mi Calm Calm - N/A   Clear
5:53 AM 30.0 °F 25.2 °F 25.0 °F 82% 30.35 in 7.0 mi ENE 4.6 mph - N/A   Clear
6:53 AM 30.0 °F 22.4 °F 25.0 °F 82% 30.36 in 6.0 mi East 8.1 mph - N/A   Haze
7:01 AM 30.0 °F 22.4 °F 25.0 °F 82% 30.34 in 6.0 mi East 8.1 mph - N/A   Haze
7:53 AM 30.9 °F 22.8 °F 26.1 °F 82% 30.38 in 5.0 mi East 9.2 mph - N/A   Haze
8:53 AM 32.0 °F 24.8 °F 26.1 °F 79% 30.39 in 6.0 mi East 8.1 mph - N/A   Haze
9:05 AM 33.1 °F 25.5 °F 26.1 °F 75% 30.36 in 6.0 mi ESE 9.2 mph - N/A   Haze
9:53 AM 35.1 °F 26.9 °F 27.0 °F 72% 30.39 in 7.0 mi East 11.5 mph - N/A   Clear
10:53 AM 37.9 °F 30.5 °F 27.0 °F 65% 30.38 in 8.0 mi East 11.5 mph - N/A   Clear
11:53 AM 41.0 °F 35.2 °F 27.0 °F 57% 30.35 in 10.0 mi ENE 9.2 mph - N/A   Clear
12:53 PM 44.1 °F 38.6 °F 26.1 °F 49% 30.31 in 10.0 mi East 10.4 mph - N/A   Clear
1:53 PM 45.0 °F 43.5 °F 27.0 °F 49% 30.28 in 10.0 mi East 3.5 mph - N/A   Clear
2:53 PM 46.9 °F - 27.0 °F 46% 30.26 in 10.0 mi NNE 5.8 mph - N/A   Clear
3:53 PM 46.0 °F 42.5 °F 27.0 °F 47% 30.25 in 10.0 mi ENE 6.9 mph - N/A   Clear
4:53 PM 45.0 °F 40.1 °F 27.0 °F 49% 30.25 in 10.0 mi NNE 9.2 mph - N/A   Clear
5:53 PM 41.0 °F 36.4 °F 27.0 °F 57% 30.25 in 10.0 mi NE 6.9 mph - N/A   Clear
6:53 PM 39.0 °F 34.0 °F 28.0 °F 65% 30.25 in 10.0 mi NE 6.9 mph - N/A   Clear
7:53 PM 37.0 °F 30.4 °F 27.0 °F 67% 30.24 in 10.0 mi ENE 9.2 mph - N/A   Clear
8:53 PM 36.0 °F 31.1 °F 27.0 °F 70% 30.23 in 10.0 mi East 5.8 mph - N/A   Clear
9:53 PM 34.0 °F 31.0 °F 26.1 °F 73% 30.23 in 10.0 mi East 3.5 mph - N/A   Clear
10:53 PM 32.0 °F 27.5 °F 25.0 °F 75% 30.20 in 10.0 mi East 4.6 mph - N/A   Clear
11:53 PM 32.0 °F 27.5 °F 25.0 °F 75% 30.19 in 10.0 mi East 4.6 mph - N/A   Clear